KM8V-8 Weather Reports


time (UTC)temp
F
wind
direction
speed
knots
gust
knots
rain 1hr
in
rain 24hr
in
rain mn
in
humidity
%
barometer
mb
20260510153519 54 345 1.7 4.3 0.00 0.25 0.02 51 1016.6
20260510153020 54 4 2.6 6.1 0.00 0.25 0.02 52 1016.6
20260510152519 54 71 2.6 7.0 0.00 0.25 0.02 52 1016.5
20260510152020 54 349 2.6 6.1 0.00 0.25 0.02 51 1016.5
20260510151519 54 4 2.6 7.0 0.00 0.25 0.02 52 1016.4
20260510151022 54 36 1.7 3.5 0.00 0.25 0.02 53 1016.4
20260510150520 53 23 1.7 5.2 0.00 0.25 0.02 55 1016.4
20260510150021 53 68 3.5 7.0 0.00 0.25 0.02 55 1016.4
20260510145519 53 45 2.6 7.0 0.00 0.25 0.02 54 1016.4
20260510145020 53 34 2.6 7.0 0.00 0.25 0.02 54 1016.4
20260510144519 52 358 2.6 7.0 0.00 0.25 0.02 55 1016.3
20260510144016 53 12 3.5 8.7 0.00 0.25 0.02 55 1016.3
20260510143520 53 348 2.6 7.0 0.00 0.25 0.02 55 1016.3
20260510143020 53 49 2.6 6.1 0.00 0.25 0.02 55 1016.3
20260510142520 53 8 2.6 6.1 0.00 0.25 0.02 54 1016.3
20260510142020 53 25 3.5 6.1 0.00 0.25 0.02 54 1016.4
20260510141520 54 12 1.7 6.1 0.00 0.25 0.02 55 1016.4
20260510141023 54 39 1.7 3.5 0.00 0.25 0.02 55 1016.4
20260510140524 53 5 2.6 3.5 0.00 0.25 0.02 57 1016.4
20260510140023 53 57 0.9 1.7 0.00 0.25 0.02 58 1016.4
20260510135523 52 57 1.7 3.5 0.00 0.25 0.02 59 1016.3
20260510135020 51 344 1.7 5.2 0.00 0.25 0.02 60 1016.3
20260510134524 51 34 1.7 4.3 0.00 0.25 0.02 61 1016.3
20260510134021 51 6 3.5 7.0 0.00 0.25 0.02 60 1016.4
20260510133521 51 359 2.6 7.0 0.00 0.25 0.02 61 1016.3
20260510133021 51 24 1.7 6.1 0.00 0.25 0.02 63 1016.2
20260510132521 50 359 1.7 5.2 0.00 0.25 0.02 65 1016.1
20260510132021 51 352 2.6 7.8 0.00 0.25 0.02 63 1015.9
20260510131521 51 63 2.6 6.1 0.00 0.25 0.02 63 1015.9
20260510131021 51 0 1.7 6.1 0.00 0.25 0.02 64 1015.7
20260510130516 51 40 3.5 7.0 0.00 0.25 0.02 62 1015.7
20260510130024 51 72 1.7 4.3 0.00 0.25 0.02 63 1015.7
20260510125521 51 12 2.6 6.1 0.00 0.25 0.02 65 1015.6
20260510125015 50 50 1.7 4.3 0.00 0.25 0.02 66 1015.5
20260510124522 50 63 1.7 5.2 0.00 0.25 0.02 67 1015.5
20260510124023 50 360 1.7 5.2 0.00 0.25 0.02 67 1015.5
20260510123522 50 4 3.5 7.8 0.00 0.25 0.02 68 1015.4
20260510123025 49 29 1.7 4.3 0.00 0.25 0.02 69 1015.3
20260510122522 49 359 1.7 5.2 0.00 0.25 0.02 70 1015.3
20260510122022 49 350 1.7 4.3 0.00 0.25 0.02 70 1015.3
20260510121526 49 8 0.9 3.5 0.00 0.25 0.02 71 1015.3
20260510121026 49 44 1.7 4.3 0.00 0.25 0.02 72 1015.2
20260510120525 49 59 1.7 4.3 0.00 0.25 0.02 71 1015.2
20260510120027 49 342 2.6 7.0 0.00 0.25 0.02 71 1015.1
20260510115517 48 9 0.9 4.3 0.00 0.25 0.02 73 1014.9
20260510115018 48 327 1.7 7.0 0.00 0.25 0.02 74 1014.7
20260510114525 48 39 0.9 3.5 0.00 0.25 0.02 74 1014.6
20260510114025 48 60 0.9 2.6 0.00 0.25 0.02 74 1014.5
20260510113526 48 16 0.9 2.6 0.00 0.25 0.02 74 1014.4
20260510113025 48 12 0.9 3.5 0.00 0.25 0.02 74 1014.4
20260510112517 48 10 0.9 4.3 0.00 0.25 0.02 75 1014.2
20260510112026 48 348 0.9 2.6 0.00 0.25 0.02 76 1014.1
20260510111526 48 89 1.7 2.6 0.00 0.25 0.02 77 1014.0
20260510111026 48 19 1.7 3.5 0.00 0.25 0.02 77 1014.0
20260510110526 48 42 1.7 4.3 0.00 0.25 0.02 78 1014.0
20260510110017 47 1 1.7 4.3 0.00 0.25 0.02 79 1013.9
20260510105523 47 358 2.6 6.1 0.00 0.25 0.02 79 1013.7
20260510105017 47 2 1.7 5.2 0.00 0.25 0.02 80 1013.5
20260510104517 47 13 1.7 6.1 0.00 0.25 0.02 81 1013.4
20260510104026 47 45 1.7 4.3 0.00 0.25 0.02 82 1013.3
20260510103518 47 23 1.7 4.3 0.00 0.25 0.02 82 1013.3
20260510103026 47 21 0.9 2.6 0.00 0.25 0.02 83 1013.1
20260510102526 47 2 1.7 3.5 0.00 0.25 0.02 83 1013.1
20260510102028 47 45 1.7 2.6 0.00 0.25 0.02 83 1013.0
20260510101527 47 29 1.7 2.6 0.00 0.25 0.02 83 1012.9
20260510101027 47 41 0.9 3.5 0.00 0.25 0.02 84 1012.8
20260510100527 47 9 0.9 2.6 0.00 0.25 0.02 84 1012.9
20260510100028 47 16 0.9 3.5 0.00 0.25 0.02 84 1012.9
20260510095527 47 19 1.7 2.6 0.00 0.25 0.02 84 1012.8
20260510095027 48 347 1.7 3.5 0.00 0.25 0.02 84 1012.8
20260510094527 48 27 0.9 1.7 0.00 0.25 0.02 84 1012.7
20260510094028 48 356 0.9 3.5 0.00 0.25 0.02 84 1012.6
20260510093528 48 336 0.0 1.7 0.00 0.25 0.02 84 1012.5
20260510093027 48 355 0.9 2.6 0.00 0.25 0.02 84 1012.5
20260510092528 48 20 0.9 1.7 0.00 0.25 0.02 84 1012.3
20260510092028 49 344 0.9 2.6 0.00 0.25 0.02 84 1012.2
20260510091528 49 339 1.7 3.5 0.00 0.25 0.02 83 1012.1
20260510091028 49 11 1.7 2.6 0.00 0.25 0.02 84 1012.0
20260510090529 49 4 0.9 2.6 0.00 0.25 0.02 84 1012.0
20260510090029 49 343 0.9 1.7 0.00 0.25 0.02 85 1012.0
20260510085528 48 353 1.7 3.5 0.00 0.25 0.02 86 1011.9
20260510085028 48 332 0.9 1.7 0.00 0.25 0.02 86 1011.8
20260510084528 48 321 0.9 1.7 0.00 0.25 0.02 87 1011.6
20260510084029 48 317 0.0 1.7 0.00 0.25 0.02 87 1011.6
20260510083528 48 343 0.0 1.7 0.00 0.25 0.02 87 1011.6
20260510083029 48 336 0.0 1.7 0.00 0.25 0.02 87 1011.5
20260510082529 48 336 0.9 1.7 0.00 0.25 0.02 87 1011.4
20260510082029 48 340 0.9 1.7 0.00 0.25 0.02 87 1011.4
20260510081529 48 338 0.9 1.7 0.00 0.25 0.02 87 1011.4
20260510081030 48 0.0 0.0 0.00 0.25 0.02 87 1011.3
20260510080529 48 0.0 0.0 0.00 0.25 0.02 86 1011.2
20260510080029 48 312 0.0 0.9 0.00 0.25 0.02 86 1011.0
20260510075529 48 315 0.9 1.7 0.00 0.25 0.02 87 1010.9
20260510075030 48 333 0.9 1.7 0.00 0.25 0.02 86 1010.7
20260510074529 48 0.0 0.0 0.00 0.25 0.02 85 1010.6
20260510074029 48 0.0 0.0 0.00 0.25 0.02 85 1010.6
20260510073530 49 0.0 0.0 0.00 0.25 0.02 85 1010.5
20260510073031 49 0.0 0.0 0.00 0.25 0.02 85 1010.5
20260510072530 49 11 0.0 0.9 0.00 0.25 0.02 85 1010.4
20260510072030 49 321 0.0 1.7 0.00 0.25 0.02 85 1010.4
20260510071531 49 329 0.0 2.6 0.00 0.25 0.02 84 1010.4
20260510071031 50 321 0.0 1.7 0.00 0.25 0.02 84 1010.4
20260510070531 50 334 0.0 0.9 0.00 0.25 0.02 83 1010.3
20260510070031 50 324 0.9 1.7 0.00 0.25 0.02 83 1010.3
20260510065516 50 345 0.9 1.7 0.00 0.25 0.02 82 1010.2
20260510065017 51 340 1.7 2.6 0.00 0.25 0.02 81 1010.2
20260510064531 51 341 0.9 2.6 0.00 0.25 0.02 81 1010.1
20260510064031 51 31 0.9 1.7 0.00 0.25 0.02 80 1010.1
20260510063531 51 60 0.9 1.7 0.00 0.25 0.02 80 1010.0
20260510063031 51 66 0.9 2.6 0.00 0.25 0.02 79 1010.0
20260510062531 51 67 0.9 2.6 0.00 0.25 0.02 79 1010.0
20260510062032 51 56 1.7 3.5 0.00 0.25 0.02 79 1010.0
20260510061531 51 64 1.7 3.5 0.00 0.25 0.02 79 1009.9
20260510061017 51 69 1.7 2.6 0.00 0.25 0.02 79 1009.9
20260510060517 51 80 1.7 4.3 0.00 0.25 0.02 81 1009.9
20260510060031 51 40 1.7 2.6 0.00 0.25 0.02 82 1010.0
20260510055518 51 59 1.7 2.6 0.01 0.25 0.02 83 1009.9
20260510055018 52 64 1.7 4.3 0.02 0.25 0.02 84 1009.8
20260510054517 52 77 2.6 6.1 0.02 0.25 0.02 85 1009.8
20260510054017 53 81 2.6 5.2 0.02 0.25 0.02 87 1009.8
20260510053518 55 59 3.5 7.8 0.02 0.25 0.02 89 1009.7
20260510053017 55 24 1.7 4.3 0.02 0.25 0.02 90 1009.6
20260510052517 56 351 0.9 3.5 0.02 0.25 0.02 90 1009.2
20260510052017 56 23 0.9 2.6 0.02 0.25 0.02 89 1009.0
20260510051517 56 29 0.9 1.7 0.02 0.25 0.02 88 1008.8
20260510051018 57 358 0.0 1.7 0.02 0.25 0.02 87 1008.6
20260510050517 57 343 0.9 1.7 0.02 0.25 0.02 87 1008.4
20260510050018 57 38 0.9 4.3 0.02 0.25 0.02 86 1008.4
20260510045518 57 319 1.7 3.5 0.01 0.24 0.01 86 1008.5
20260510045018 57 9 0.9 4.3 0.00 0.24 0.00 86 1008.3
20260510044518 57 1 1.7 2.6 0.00 0.23 0.00 86 1008.2
20260510044019 57 5 0.9 2.6 0.00 0.23 0.00 85 1008.0
20260510043518 57 348 0.9 4.3 0.00 0.23 0.00 84 1007.7
20260510043018 57 207 0.9 2.6 0.00 0.23 0.00 84 1007.2
20260510042518 57 215 0.0 1.7 0.00 0.23 0.00 83 1007.1
20260510042018 57 201 0.9 2.6 0.00 0.23 0.00 83 1007.1
20260510041518 57 208 2.6 4.3 0.00 0.23 0.00 83 1007.1
20260510041019 57 214 0.9 2.6 0.00 0.23 0.00 83 1007.0
20260510040520 58 210 0.9 2.6 0.00 0.23 0.00 84 1006.9
20260510040018 58 221 1.7 3.5 0.00 0.23 0.00 84 1006.9
20260510035519 58 204 0.9 3.5 0.00 0.23 0.00 84 1006.9
20260510035019 58 209 1.7 3.5 0.00 0.23 0.00 84 1006.9
20260510034519 58 217 0.9 2.6 0.00 0.24 0.00 83 1006.9
20260510034019 58 209 1.7 5.2 0.00 0.24 0.00 83 1007.0
20260510033519 57 205 3.5 7.8 0.00 0.24 0.00 84 1007.0
20260510033019 57 195 1.7 4.3 0.00 0.24 0.00 84 1007.0
20260510032520 57 217 1.7 3.5 0.00 0.24 0.00 84 1007.1
20260510032020 57 203 2.6 7.0 0.00 0.24 0.00 85 1007.1
20260510031519 56 211 1.7 3.5 0.00 0.24 0.00 87 1007.0
20260510031020 56 210 1.7 5.2 0.00 0.24 0.00 90 1006.9
20260510030520 55 194 2.6 5.2 0.00 0.24 0.00 91 1007.0
20260510030020 55 198 1.7 4.3 0.00 0.24 0.00 92 1007.0
20260510025520 55 254 0.0 0.9 0.00 0.24 0.00 92 1006.9
20260510025020 55 203 0.0 0.0 0.00 0.24 0.00 92 1006.9
20260510024520 55 225 0.9 3.5 0.00 0.24 0.00 93 1006.8
20260510024020 55 233 0.9 3.5 0.00 0.24 0.00 93 1006.8
20260510023521 55 318 0.0 1.7 0.00 0.24 0.00 93 1006.9
20260510023020 55 223 0.9 1.7 0.00 0.24 0.00 94 1007.0
20260510022520 55 208 1.7 4.3 0.00 0.24 0.00 94 1007.2
20260510022020 55 226 1.7 6.1 0.00 0.24 0.00 94 1007.3
20260510021521 54 218 0.9 4.3 0.00 0.24 0.00 94 1007.1
20260510021021 54 267 0.0 1.7 0.00 0.24 0.00 94 1006.7
20260510020520 54 248 0.0 0.9 0.00 0.24 0.00 93 1006.7
20260510020021 54 227 0.0 0.9 0.00 0.24 0.00 93 1006.6
20260510015521 54 0.0 0.0 0.00 0.24 0.00 93 1006.4
20260510015021 54 0.0 0.0 0.00 0.24 0.00 92 1006.4
20260510014521 54 0.0 0.0 0.00 0.24 0.00 92 1006.4
20260510014021 54 0.0 0.0 0.00 0.24 0.00 92 1006.4
20260510013521 55 0.0 0.0 0.00 0.24 0.00 91 1006.4
20260510013021 55 338 0.0 0.9 0.00 0.24 0.00 91 1006.3
20260510012521 55 0.0 0.0 0.00 0.24 0.00 90 1006.3
20260510012021 56 0.0 0.0 0.00 0.24 0.00 90 1006.2
20260510011522 56 208 0.0 0.9 0.00 0.24 0.00 89 1006.2
20260510011021 56 238 0.0 2.6 0.00 0.24 0.00 89 1006.1
20260510010522 56 176 0.0 1.7 0.00 0.24 0.00 89 1006.1
20260510010022 57 201 1.7 4.3 0.00 0.24 0.00 89 1006.1
20260510005522 57 188 0.9 3.5 0.00 0.24 0.00 89 1006.0
20260510005022 57 204 1.7 3.5 0.00 0.24 0.00 89 1006.0
20260510004522 57 217 1.7 2.6 0.00 0.24 0.00 90 1006.0
20260510004023 57 214 1.7 3.5 0.00 0.24 0.00 90 1006.0
20260510003516 57 214 1.7 4.3 0.00 0.24 0.00 90 1006.0
20260510003016 57 210 2.6 6.1 0.00 0.25 0.00 90 1006.1
20260510002522 57 213 1.7 3.5 0.00 0.25 0.00 90 1006.1
20260510002017 57 210 1.7 5.2 0.00 0.25 0.00 90 1006.0
20260510001523 58 225 1.7 3.5 0.00 0.25 0.00 89 1006.0
20260510001017 58 205 1.7 6.1 0.00 0.25 0.00 89 1005.9
20260510000523 58 193 1.7 4.3 0.01 0.25 0.00 89 1005.9
20260510000017 58 192 1.7 5.2 0.01 0.25 0.00 89 1005.8
20260509235523 58 200 3.5 7.0 0.01 0.25 0.25 90 1005.8
20260509235017 58 205 2.6 6.1 0.01 0.26 0.25 92 1005.8
20260509234517 58 207 1.7 5.2 0.01 0.26 0.25 92 1005.7
20260509234017 57 191 1.7 6.1 0.04 0.27 0.25 93 1005.7
20260509233523 57 200 0.9 2.6 0.09 0.27 0.25 93 1005.7
20260509233017 57 220 1.7 4.3 0.20 0.27 0.25 93 1005.7
20260509232518 57 208 2.6 7.0 0.21 0.28 0.25 93 1005.6
20260509232018 57 204 2.6 7.0 0.23 0.28 0.25 93 1005.6
20260509231517 57 185 3.5 7.8 0.23 0.28 0.25 93 1005.6
20260509231018 57 147 3.5 7.0 0.23 0.29 0.25 94 1005.8
20260509230518 57 184 2.6 5.2 0.23 0.29 0.25 93 1005.8
20260509230024 57 233 1.7 3.5 0.23 0.30 0.25 93 1005.7
20260509225523 57 29 1.7 3.5 0.23 0.30 0.25 93 1005.6
20260509225024 57 47 1.7 4.3 0.23 0.31 0.25 92 1005.7
20260509224518 58 212 2.6 10.4 0.22 0.31 0.24 90 1006.0
20260509224015 60 151 4.3 9.6 0.19 0.28 0.21 87 1005.8
20260509223518 63 209 4.3 11.3 0.14 0.24 0.16 82 1005.5
20260509223020 68 278 4.3 8.7 0.04 0.14 0.06 71 1005.0
20260509222518 69 236 3.5 9.6 0.02 0.13 0.04 58 1003.4
20260509222018 70 214 2.6 8.7 0.00 0.11 0.02 54 1002.7
20260509221519 70 203 4.3 13.0 0.00 0.11 0.02 53 1002.6
20260509221019 70 193 5.2 11.3 0.00 0.11 0.02 52 1002.7
20260509220518 70 197 5.2 12.2 0.00 0.11 0.02 52 1002.8
20260509220019 70 219 3.5 9.6 0.00 0.11 0.02 52 1002.7
20260509215518 70 209 3.5 11.3 0.00 0.11 0.02 53 1002.8
20260509215017 71 198 6.1 13.0 0.00 0.11 0.02 52 1002.7
20260509214516 71 194 3.5 10.4 0.00 0.11 0.02 52 1002.6
20260509214015 72 193 4.3 9.6 0.00 0.11 0.02 52 1002.5
20260509213519 72 191 3.5 8.7 0.00 0.11 0.02 51 1002.4
20260509213019 72 205 4.3 9.6 0.00 0.11 0.02 50 1002.4
20260509212521 72 208 3.5 7.8 0.00 0.11 0.02 53 1002.3
20260509212019 72 194 5.2 12.2 0.00 0.11 0.02 52 1002.3
20260509211519 72 203 4.3 12.2 0.00 0.11 0.02 52 1002.4
20260509211016 72 197 3.5 9.6 0.00 0.11 0.02 54 1002.5
20260509210516 71 201 4.3 8.7 0.00 0.11 0.02 54 1002.5
20260509210017 72 199 5.2 11.3 0.00 0.11 0.02 54 1002.7
20260509205520 72 191 4.3 8.7 0.00 0.11 0.02 55 1002.7
20260509205016 71 197 4.3 7.8 0.00 0.11 0.02 54 1002.8
20260509204520 71 207 3.5 8.7 0.00 0.11 0.02 55 1002.9
20260509204018 71 199 5.2 10.4 0.00 0.11 0.02 55 1003.0
20260509203520 71 195 6.1 14.8 0.00 0.11 0.02 55 1003.1
20260509203018 71 200 3.5 9.6 0.00 0.11 0.02 56 1003.2
20260509202517 71 199 5.2 12.2 0.00 0.11 0.02 55 1003.3
20260509202017 70 204 4.3 13.0 0.00 0.11 0.02 56 1003.4
20260509201517 70 194 5.2 10.4 0.00 0.12 0.02 56 1003.5
20260509201017 70 200 6.1 14.8 0.00 0.12 0.02 55 1003.5
20260509200518 70 200 4.3 9.6 0.00 0.12 0.02 56 1003.7
20260509200017 70 198 5.2 12.2 0.00 0.12 0.02 56 1003.7
20260509195518 70 198 6.1 11.3 0.00 0.12 0.02 55 1003.7
20260509195017 70 194 5.2 10.4 0.00 0.12 0.02 56 1003.7
20260509194516 71 203 5.2 10.4 0.00 0.12 0.02 56 1003.7
20260509194018 70 219 3.5 8.7 0.00 0.12 0.02 58 1003.9
20260509193522 70 203 4.3 7.8 0.00 0.12 0.02 59 1004.0
20260509193018 70 200 6.1 11.3 0.00 0.12 0.02 58 1004.0
20260509192518 70 193 4.3 10.4 0.00 0.12 0.02 58 1004.0
20260509192018 70 208 4.3 10.4 0.00 0.12 0.02 59 1004.1
20260509191518 69 206 4.3 10.4 0.00 0.12 0.02 60 1004.2
20260509191019 69 202 4.3 10.4 0.00 0.12 0.02 59 1004.3
20260509190518 69 202 4.3 8.7 0.00 0.12 0.02 60 1004.3
20260509190022 69 201 3.5 8.7 0.00 0.12 0.02 60 1004.4
20260509185522 69 202 3.5 7.8 0.00 0.12 0.02 61 1004.5
20260509185019 68 202 5.2 11.3 0.00 0.12 0.02 61 1004.6
20260509184516 68 205 4.3 7.8 0.00 0.12 0.02 61 1004.7
20260509184016 68 200 4.3 10.4 0.00 0.12 0.02 62 1004.7
20260509183519 67 201 4.3 13.0 0.00 0.12 0.02 62 1004.8
20260509183019 67 209 4.3 12.2 0.00 0.12 0.02 62 1004.8
20260509182520 67 207 5.2 11.3 0.00 0.12 0.02 61 1004.8
20260509182019 67 201 5.2 12.2 0.00 0.12 0.02 62 1004.8
20260509181517 66 199 5.2 10.4 0.00 0.12 0.02 62 1004.8
20260509181016 66 205 5.2 11.3 0.00 0.12 0.02 62 1004.8
20260509180516 67 196 4.3 8.7 0.00 0.12 0.02 62 1004.7
20260509180016 67 204 4.3 10.4 0.00 0.12 0.02 62 1004.7
20260509175516 67 215 3.5 7.8 0.00 0.12 0.02 63 1004.8
20260509175017 67 205 4.3 13.0 0.00 0.12 0.02 63 1004.8
20260509174516 67 199 3.5 9.6 0.00 0.12 0.02 64 1004.8
20260509174016 66 211 2.6 7.0 0.00 0.12 0.02 65 1004.9
20260509173520 66 205 4.3 10.4 0.00 0.12 0.02 63 1005.0
20260509173020 66 203 4.3 8.7 0.00 0.12 0.02 62 1005.2
20260509172520 66 216 2.6 9.6 0.00 0.12 0.02 65 1005.1
20260509172023 66 203 4.3 8.7 0.00 0.12 0.02 65 1005.1
20260509171517 66 199 3.5 7.0 0.00 0.12 0.02 66 1005.1
20260509171017 65 215 3.5 8.7 0.00 0.12 0.02 66 1005.1
20260509170517 65 195 4.3 8.7 0.00 0.12 0.02 66 1005.1
20260509170017 65 200 4.3 9.6 0.00 0.12 0.02 66 1005.1
20260509165517 65 202 3.5 7.8 0.00 0.12 0.02 67 1005.1
20260509165017 65 201 3.5 7.8 0.00 0.12 0.02 67 1005.2
20260509164518 64 208 2.6 5.2 0.00 0.12 0.02 68 1005.4
20260509164017 64 200 3.5 7.0 0.00 0.12 0.02 68 1005.3
20260509163517 64 199 4.3 7.8 0.00 0.12 0.02 67 1005.3
20260509163018 64 202 3.5 7.8 0.00 0.12 0.02 68 1005.3
20260509162517 64 217 3.5 9.6 0.00 0.12 0.02 69 1005.2
20260509162017 63 212 2.6 5.2 0.00 0.12 0.02 70 1005.3
20260509161518 63 198 3.5 7.8 0.00 0.12 0.02 69 1005.4
20260509161018 64 201 3.5 7.0 0.00 0.12 0.02 69 1005.5
20260509160518 64 208 3.5 7.0 0.00 0.12 0.02 68 1005.7
20260509160018 64 217 3.5 7.8 0.00 0.12 0.02 70 1005.8
20260509155518 63 203 1.7 5.2 0.00 0.12 0.02 71 1006.0
20260509155018 62 196 2.6 5.2 0.00 0.12 0.02 71 1006.0
20260509154530 62 230 1.7 4.3 0.00 0.12 0.02 73 1006.2
20260509154019 62 197 2.6 7.0 0.00 0.12 0.02 74 1006.2